| time (UTC) | temp C | wind direction | speed KPH | gust KPH | rain 1hr cm | rain 24hr cm | rain mn cm | humidity % | barometer mb |
| 20260502170451 | 15 | 309 | 3.2 | 12.9 | 0.00 | 0.00 | 0.00 | 38 | 1023.5 |
| 20260502163922 | 15 | 279 | 3.2 | 11.3 | 0.00 | 0.00 | 0.00 | 41 | 1023.6 |
| 20260502162908 | 16 | 5 | 3.2 | 12.9 | 0.00 | 0.00 | 0.00 | 37 | 1023.7 |
| 20260502162403 | 16 | 355 | 3.2 | 12.9 | 0.00 | 0.00 | 0.00 | 41 | 1023.7 |
| 20260502161856 | 16 | 344 | 3.2 | 14.5 | 0.00 | 0.00 | 0.00 | 37 | 1023.7 |
| 20260502160338 | 16 | 309 | 3.2 | 11.3 | 0.00 | 0.00 | 0.00 | 39 | 1023.5 |
| 20260502152251 | 15 | 40 | 1.6 | 6.4 | 0.00 | 0.00 | 0.00 | 43 | 1023.4 |
| 20260502151248 | 14 | 257 | 3.2 | 14.5 | 0.00 | 0.00 | 0.00 | 43 | 1023.4 |
| 20260502150750 | 14 | 286 | 3.2 | 14.5 | 0.00 | 0.00 | 0.00 | 40 | 1023.4 |
| 20260502150249 | 14 | 316 | 1.6 | 6.4 | 0.00 | 0.00 | 0.00 | 44 | 1023.5 |
| 20260502130740 | 5 | 314 | 1.6 | 8.0 | 0.00 | 0.00 | 0.00 | 76 | 1023.2 |
| 20260502130241 | 5 | 305 | 1.6 | 8.0 | 0.00 | 0.00 | 0.00 | 78 | 1023.2 |
| 20260502123736 | 3 | 246 | 0.0 | 3.2 | 0.00 | 0.00 | 0.00 | 82 | 1023.0 |
| 20260502122738 | 2 | 248 | 0.0 | 4.8 | 0.00 | 0.00 | 0.00 | 82 | 1022.8 |
| 20260502122232 | 2 | 244 | 0.0 | 3.2 | 0.00 | 0.00 | 0.00 | 82 | 1022.7 |
| 20260502121733 | 2 | 309 | 0.0 | 3.2 | 0.00 | 0.00 | 0.00 | 82 | 1022.8 |
| 20260502121231 | 2 | 309 | 0.0 | 1.6 | 0.00 | 0.00 | 0.00 | 82 | 1022.7 |
| 20260502120731 | 2 | 324 | 0.0 | 1.6 | 0.00 | 0.00 | 0.00 | 82 | 1022.7 |
| 20260502120231 | 2 | 324 | 0.0 | 1.6 | 0.00 | 0.00 | 0.00 | 81 | 1022.7 |
| 20260502115731 | 2 | 324 | 0.0 | 1.6 | 0.00 | 0.00 | 0.00 | 81 | 1022.6 |
| 20260502115230 | 2 | 324 | 0.0 | 0.0 | 0.00 | 0.00 | 0.00 | 81 | 1022.5 |
| 20260502114728 | 2 | 324 | 0.0 | 0.0 | 0.00 | 0.00 | 0.00 | 81 | 1022.4 |
| 20260502114226 | 2 | 324 | 0.0 | 0.0 | 0.00 | 0.00 | 0.00 | 80 | 1022.3 |
| 20260502113726 | 2 | 324 | 0.0 | 1.6 | 0.00 | 0.00 | 0.00 | 80 | 1022.2 |
| 20260502113223 | 2 | 324 | 0.0 | 1.6 | 0.00 | 0.00 | 0.00 | 80 | 1022.3 |
| 20260502112721 | 2 | 324 | 0.0 | 0.0 | 0.00 | 0.00 | 0.00 | 80 | 1022.2 |
| 20260502111719 | 2 | 324 | 0.0 | 0.0 | 0.00 | 0.00 | 0.00 | 79 | 1022.0 |
| 20260502111216 | 2 | 324 | 0.0 | 0.0 | 0.00 | 0.00 | 0.00 | 79 | 1022.0 |
| 20260502110716 | 2 | 324 | 0.0 | 0.0 | 0.00 | 0.00 | 0.00 | 79 | 1022.0 |
| 20260502110216 | 2 | 324 | 0.0 | 0.0 | 0.00 | 0.00 | 0.00 | 79 | 1022.0 |
| 20260502105711 | 2 | 324 | 0.0 | 1.6 | 0.00 | 0.00 | 0.00 | 79 | 1022.0 |
| 20260502105203 | 2 | 324 | 0.0 | 1.6 | 0.00 | 0.00 | 0.00 | 78 | 1022.0 |
| 20260502103645 | 2 | 324 | 0.0 | 0.0 | 0.00 | 0.00 | 0.00 | 78 | 1021.9 |
| 20260502103140 | 2 | 324 | 0.0 | 0.0 | 0.00 | 0.00 | 0.00 | 78 | 1022.0 |
| 20260502102634 | 3 | 324 | 0.0 | 0.0 | 0.00 | 0.00 | 0.00 | 77 | 1021.9 |
| 20260502102127 | 3 | 324 | 0.0 | 0.0 | 0.00 | 0.00 | 0.00 | 77 | 1021.9 |
| 20260502101622 | 3 | 324 | 0.0 | 0.0 | 0.00 | 0.00 | 0.00 | 77 | 1021.8 |
| 20260502101116 | 3 | 324 | 0.0 | 0.0 | 0.00 | 0.00 | 0.00 | 77 | 1021.8 |
| 20260502100609 | 3 | 324 | 0.0 | 0.0 | 0.00 | 0.00 | 0.00 | 77 | 1021.8 |
| 20260502100104 | 3 | 324 | 0.0 | 0.0 | 0.00 | 0.00 | 0.00 | 77 | 1021.8 |
| 20260502091004 | 3 | 324 | 0.0 | 1.6 | 0.00 | 0.00 | 0.00 | 73 | 1021.7 |
| 20260502090500 | 3 | 324 | 0.0 | 0.0 | 0.00 | 0.00 | 0.00 | 72 | 1021.6 |
| 20260502071412 | 6 | 324 | 0.0 | 0.0 | 0.00 | 0.00 | 0.00 | 59 | 1021.4 |
| 20260502070910 | 6 | 324 | 0.0 | 0.0 | 0.00 | 0.00 | 0.00 | 58 | 1021.3 |
| 20260502070408 | 6 | 324 | 0.0 | 0.0 | 0.00 | 0.00 | 0.00 | 58 | 1021.4 |
| 20260502065912 | 7 | 324 | 0.0 | 0.0 | 0.00 | 0.00 | 0.00 | 57 | 1021.4 |
| 20260502065405 | 7 | 324 | 0.0 | 0.0 | 0.00 | 0.00 | 0.00 | 56 | 1021.5 |
| 20260502064858 | 7 | 324 | 0.0 | 0.0 | 0.00 | 0.00 | 0.00 | 56 | 1021.5 |
| 20260502063847 | 7 | 324 | 0.0 | 1.6 | 0.00 | 0.00 | 0.00 | 56 | 1021.5 |
| 20260502063340 | 7 | 324 | 0.0 | 1.6 | 0.00 | 0.00 | 0.00 | 55 | 1021.6 |
| 20260502062835 | 7 | 324 | 0.0 | 0.0 | 0.00 | 0.00 | 0.00 | 55 | 1021.5 |
| 20260502062328 | 7 | 324 | 0.0 | 3.2 | 0.00 | 0.00 | 0.00 | 55 | 1021.5 |
| 20260502061822 | 7 | 324 | 0.0 | 3.2 | 0.00 | 0.00 | 0.00 | 55 | 1021.5 |
| 20260502061317 | 7 | 325 | 0.0 | 0.0 | 0.00 | 0.00 | 0.00 | 56 | 1021.4 |
| 20260502060811 | 7 | 325 | 0.0 | 0.0 | 0.00 | 0.00 | 0.00 | 54 | 1021.5 |
| 20260502060304 | 7 | 325 | 0.0 | 0.0 | 0.00 | 0.00 | 0.00 | 55 | 1021.4 |
| 20260502055759 | 8 | 325 | 0.0 | 0.0 | 0.00 | 0.00 | 0.00 | 54 | 1021.4 |
| 20260502055252 | 8 | 325 | 0.0 | 0.0 | 0.00 | 0.00 | 0.00 | 54 | 1021.4 |
| 20260502054748 | 8 | 325 | 0.0 | 0.0 | 0.00 | 0.00 | 0.00 | 54 | 1021.4 |
| 20260502054243 | 8 | 325 | 0.0 | 0.0 | 0.00 | 0.00 | 0.00 | 54 | 1021.3 |
| 20260502053739 | 8 | 325 | 0.0 | 0.0 | 0.00 | 0.00 | 0.00 | 54 | 1021.3 |
| 20260502053237 | 8 | 325 | 0.0 | 0.0 | 0.00 | 0.00 | 0.00 | 54 | 1021.3 |
| 20260502052737 | 8 | 325 | 0.0 | 0.0 | 0.00 | 0.00 | 0.00 | 53 | 1021.3 |
| 20260502052237 | 8 | 325 | 0.0 | 1.6 | 0.00 | 0.00 | 0.00 | 51 | 1021.3 |
| 20260502051737 | 8 | 325 | 0.0 | 1.6 | 0.00 | 0.00 | 0.00 | 51 | 1021.3 |
| 20260502051237 | 9 | 325 | 0.0 | 1.6 | 0.00 | 0.00 | 0.00 | 51 | 1021.3 |
| 20260502050739 | 9 | 325 | 0.0 | 1.6 | 0.00 | 0.00 | 0.00 | 51 | 1021.3 |
| 20260502050239 | 9 | 325 | 0.0 | 3.2 | 0.00 | 0.00 | 0.00 | 51 | 1021.2 |
| 20260502045737 | 9 | 325 | 0.0 | 3.2 | 0.00 | 0.00 | 0.00 | 51 | 1021.1 |
| 20260502044727 | 9 | 315 | 0.0 | 3.2 | 0.00 | 0.00 | 0.00 | 51 | 1021.1 |
| 20260502044220 | 10 | 315 | 0.0 | 3.2 | 0.00 | 0.00 | 0.00 | 50 | 1021.0 |
| 20260502043714 | 10 | 315 | 0.0 | 3.2 | 0.00 | 0.00 | 0.00 | 50 | 1021.1 |
| 20260502043208 | 10 | 47 | 0.0 | 3.2 | 0.00 | 0.00 | 0.00 | 50 | 1021.0 |
| 20260502042706 | 10 | 5 | 0.0 | 3.2 | 0.00 | 0.00 | 0.00 | 50 | 1021.0 |
| 20260502041651 | 10 | 5 | 0.0 | 3.2 | 0.00 | 0.00 | 0.00 | 50 | 1021.0 |
| 20260502041146 | 10 | 350 | 0.0 | 3.2 | 0.00 | 0.00 | 0.00 | 50 | 1020.9 |
| 20260502040639 | 10 | 355 | 1.6 | 3.2 | 0.00 | 0.00 | 0.00 | 50 | 1021.0 |
| 20260502040132 | 10 | 355 | 1.6 | 4.8 | 0.00 | 0.00 | 0.00 | 49 | 1020.9 |
| 20260502035627 | 10 | 340 | 1.6 | 4.8 | 0.00 | 0.00 | 0.00 | 50 | 1020.9 |
| 20260502035120 | 10 | 59 | 1.6 | 4.8 | 0.00 | 0.00 | 0.00 | 50 | 1020.9 |
| 20260502034613 | 11 | 344 | 1.6 | 4.8 | 0.00 | 0.00 | 0.00 | 50 | 1020.9 |
| 20260502034108 | 11 | 355 | 1.6 | 4.8 | 0.00 | 0.00 | 0.00 | 50 | 1020.8 |
| 20260502033603 | 11 | 339 | 0.0 | 4.8 | 0.00 | 0.00 | 0.00 | 51 | 1020.8 |
| 20260502033056 | 11 | 304 | 0.0 | 4.8 | 0.00 | 0.00 | 0.00 | 51 | 1020.7 |
| 20260502032550 | 11 | 279 | 1.6 | 4.8 | 0.00 | 0.00 | 0.00 | 51 | 1020.8 |
| 20260502032044 | 11 | 308 | 1.6 | 4.8 | 0.00 | 0.00 | 0.00 | 51 | 1020.7 |
| 20260502031537 | 11 | 339 | 1.6 | 4.8 | 0.00 | 0.00 | 0.00 | 52 | 1020.7 |
| 20260502031032 | 11 | 355 | 1.6 | 4.8 | 0.00 | 0.00 | 0.00 | 52 | 1020.6 |
| 20260502030526 | 11 | 329 | 1.6 | 4.8 | 0.00 | 0.00 | 0.00 | 53 | 1020.6 |
| 20260502025514 | 11 | 293 | 1.6 | 4.8 | 0.00 | 0.00 | 0.00 | 54 | 1020.4 |
| 20260502025008 | 12 | 279 | 1.6 | 4.8 | 0.00 | 0.00 | 0.00 | 53 | 1020.3 |
| 20260502024501 | 12 | 95 | 0.0 | 4.8 | 0.00 | 0.00 | 0.00 | 53 | 1020.0 |
| 20260502023957 | 12 | 302 | 0.0 | 3.2 | 0.00 | 0.00 | 0.00 | 53 | 1019.9 |
| 20260502022944 | 12 | 302 | 0.0 | 3.2 | 0.00 | 0.00 | 0.00 | 52 | 1019.8 |
| 20260502022438 | 12 | 302 | 0.0 | 3.2 | 0.00 | 0.00 | 0.00 | 52 | 1019.5 |
| 20260502021932 | 13 | 302 | 0.0 | 0.0 | 0.00 | 0.00 | 0.00 | 51 | 1019.4 |
| 20260502021427 | 13 | 302 | 0.0 | 0.0 | 0.00 | 0.00 | 0.00 | 50 | 1019.4 |
| 20260502020920 | 13 | 302 | 0.0 | 0.0 | 0.00 | 0.00 | 0.00 | 49 | 1019.3 |
| 20260502020413 | 13 | 302 | 0.0 | 0.0 | 0.00 | 0.00 | 0.00 | 48 | 1019.2 |
| 20260502015907 | 13 | 302 | 0.0 | 0.0 | 0.00 | 0.00 | 0.00 | 48 | 1019.0 |
| 20260502014857 | 14 | 302 | 0.0 | 0.0 | 0.00 | 0.00 | 0.00 | 46 | 1018.8 |
| 20260502014350 | 14 | 302 | 0.0 | 0.0 | 0.00 | 0.00 | 0.00 | 46 | 1018.7 |
| 20260502013845 | 14 | 302 | 0.0 | 1.6 | 0.00 | 0.00 | 0.00 | 46 | 1018.7 |
| 20260502013338 | 14 | 302 | 0.0 | 4.8 | 0.00 | 0.00 | 0.00 | 45 | 1018.6 |
| 20260502012833 | 15 | 302 | 1.6 | 4.8 | 0.00 | 0.00 | 0.00 | 45 | 1018.6 |
| 20260502011819 | 15 | 301 | 1.6 | 4.8 | 0.00 | 0.00 | 0.00 | 43 | 1018.6 |
| 20260502011314 | 15 | 299 | 1.6 | 4.8 | 0.00 | 0.00 | 0.00 | 43 | 1018.5 |
| 20260502010810 | 15 | 297 | 1.6 | 6.4 | 0.00 | 0.00 | 0.00 | 43 | 1018.5 |
| 20260502005756 | 16 | 292 | 1.6 | 9.7 | 0.00 | 0.00 | 0.00 | 42 | 1018.3 |
| 20260502005250 | 16 | 333 | 1.6 | 8.0 | 0.00 | 0.00 | 0.00 | 41 | 1018.4 |
| 20260502004744 | 16 | 305 | 3.2 | 11.3 | 0.00 | 0.00 | 0.00 | 40 | 1018.3 |
| 20260502004238 | 16 | 302 | 3.2 | 11.3 | 0.00 | 0.00 | 0.00 | 39 | 1018.2 |
| 20260502003732 | 16 | 315 | 3.2 | 12.9 | 0.00 | 0.00 | 0.00 | 39 | 1018.1 |
| 20260502003226 | 16 | 316 | 4.8 | 16.1 | 0.00 | 0.00 | 0.00 | 38 | 1017.9 |
| 20260502001720 | 16 | 304 | 4.8 | 14.5 | 0.00 | 0.00 | 0.00 | 37 | 1017.9 |
| 20260502000715 | 16 | 311 | 6.4 | 19.3 | 0.00 | 0.00 | 0.00 | 37 | 1017.9 |
| 20260502000214 | 17 | 281 | 4.8 | 19.3 | 0.00 | 0.00 | 0.00 | 38 | 1017.9 |
| 20260501235714 | 16 | 350 | 4.8 | 12.9 | 0.00 | 0.00 | 0.00 | 38 | 1017.9 |
| 20260501235213 | 16 | 304 | 4.8 | 14.5 | 0.00 | 0.00 | 0.00 | 39 | 1017.7 |
| 20260501234712 | 17 | 294 | 4.8 | 14.5 | 0.00 | 0.00 | 0.00 | 37 | 1017.8 |
| 20260501233712 | 17 | 300 | 8.0 | 20.9 | 0.00 | 0.00 | 0.00 | 37 | 1017.7 |
| 20260501233212 | 17 | 290 | 8.0 | 19.3 | 0.00 | 0.00 | 0.00 | 36 | 1017.8 |
| 20260501232713 | 17 | 334 | 6.4 | 19.3 | 0.00 | 0.00 | 0.00 | 38 | 1017.6 |
| 20260501232213 | 17 | 306 | 4.8 | 19.3 | 0.00 | 0.00 | 0.00 | 38 | 1017.6 |
| 20260501231712 | 17 | 315 | 4.8 | 14.5 | 0.00 | 0.00 | 0.00 | 37 | 1017.5 |
| 20260501231212 | 17 | 294 | 6.4 | 16.1 | 0.00 | 0.00 | 0.00 | 36 | 1017.7 |
| 20260501230708 | 17 | 332 | 6.4 | 20.9 | 0.00 | 0.00 | 0.00 | 36 | 1017.7 |
| 20260501230209 | 17 | 321 | 4.8 | 20.9 | 0.00 | 0.00 | 0.00 | 36 | 1017.6 |
| 20260501225708 | 17 | 259 | 4.8 | 14.5 | 0.00 | 0.00 | 0.00 | 36 | 1017.6 |
| 20260501225209 | 18 | 286 | 4.8 | 14.5 | 0.00 | 0.00 | 0.00 | 35 | 1017.6 |
| 20260501223707 | 18 | 312 | 4.8 | 14.5 | 0.00 | 0.00 | 0.00 | 37 | 1017.7 |
| 20260501223209 | 18 | 234 | 6.4 | 19.3 | 0.00 | 0.00 | 0.00 | 38 | 1017.7 |
| 20260501222204 | 18 | 306 | 3.2 | 11.3 | 0.00 | 0.00 | 0.00 | 39 | 1017.7 |
| 20260501221704 | 18 | 299 | 4.8 | 19.3 | 0.00 | 0.00 | 0.00 | 40 | 1017.8 |
| 20260501221204 | 18 | 303 | 6.4 | 19.3 | 0.00 | 0.00 | 0.00 | 37 | 1017.8 |
| 20260501220704 | 18 | 309 | 6.4 | 17.7 | 0.00 | 0.00 | 0.00 | 37 | 1017.8 |
| 20260501220203 | 18 | 297 | 6.4 | 30.6 | 0.00 | 0.00 | 0.00 | 40 | 1017.8 |
| 20260501215703 | 18 | 305 | 8.0 | 30.6 | 0.00 | 0.00 | 0.00 | 38 | 1017.9 |
| 20260501215203 | 18 | 252 | 6.4 | 20.9 | 0.00 | 0.00 | 0.00 | 37 | 1017.8 |
| 20260501214703 | 18 | 284 | 4.8 | 16.1 | 0.00 | 0.00 | 0.00 | 40 | 1017.8 |
| 20260501214203 | 18 | 268 | 6.4 | 16.1 | 0.00 | 0.00 | 0.00 | 37 | 1017.8 |
| 20260501213656 | 18 | 69 | 6.4 | 17.7 | 0.00 | 0.00 | 0.00 | 37 | 1017.9 |
| 20260501213151 | 18 | 263 | 6.4 | 17.7 | 0.00 | 0.00 | 0.00 | 37 | 1018.1 |
| 20260501212645 | 18 | 229 | 8.0 | 19.3 | 0.00 | 0.00 | 0.00 | 41 | 1018.2 |
| 20260501212138 | 18 | 285 | 6.4 | 19.3 | 0.00 | 0.00 | 0.00 | 39 | 1018.2 |
| 20260501211633 | 18 | 346 | 3.2 | 14.5 | 0.00 | 0.00 | 0.00 | 39 | 1018.2 |
| 20260501211131 | 18 | 244 | 6.4 | 24.1 | 0.00 | 0.00 | 0.00 | 43 | 1018.2 |
| 20260501210632 | 17 | 316 | 9.7 | 24.1 | 0.00 | 0.00 | 0.00 | 39 | 1018.4 |
| 20260501210130 | 18 | 315 | 6.4 | 19.3 | 0.00 | 0.00 | 0.00 | 40 | 1018.4 |
| 20260501205630 | 18 | 301 | 6.4 | 20.9 | 0.00 | 0.00 | 0.00 | 43 | 1018.6 |
| 20260501205131 | 18 | 306 | 6.4 | 20.9 | 0.00 | 0.00 | 0.00 | 40 | 1018.6 |
| 20260501204128 | 18 | 304 | 6.4 | 17.7 | 0.00 | 0.00 | 0.00 | 41 | 1018.7 |
| 20260501203627 | 18 | 267 | 6.4 | 17.7 | 0.00 | 0.00 | 0.00 | 40 | 1018.7 |
| 20260501203126 | 18 | 281 | 8.0 | 19.3 | 0.00 | 0.00 | 0.00 | 42 | 1018.8 |
| 20260501202626 | 19 | 321 | 6.4 | 19.3 | 0.00 | 0.00 | 0.00 | 40 | 1018.8 |
| 20260501201623 | 18 | 307 | 3.2 | 9.7 | 0.00 | 0.00 | 0.00 | 42 | 1018.8 |
| 20260501201124 | 18 | 276 | 4.8 | 17.7 | 0.00 | 0.00 | 0.00 | 43 | 1019.0 |
| 20260501200624 | 18 | 313 | 6.4 | 17.7 | 0.00 | 0.00 | 0.00 | 40 | 1019.1 |
| 20260501195125 | 18 | 289 | 6.4 | 17.7 | 0.00 | 0.00 | 0.00 | 38 | 1019.3 |
| 20260501194620 | 18 | 5 | 6.4 | 14.5 | 0.00 | 0.00 | 0.00 | 38 | 1019.4 |
| 20260501194113 | 18 | 307 | 4.8 | 12.9 | 0.00 | 0.00 | 0.00 | 40 | 1019.4 |
| 20260501193607 | 18 | 208 | 4.8 | 14.5 | 0.00 | 0.00 | 0.00 | 37 | 1019.3 |
| 20260501193102 | 18 | 274 | 6.4 | 19.3 | 0.00 | 0.00 | 0.00 | 47 | 1019.3 |
| 20260501192555 | 18 | 283 | 4.8 | 19.3 | 0.00 | 0.00 | 0.00 | 38 | 1019.3 |
| 20260501192050 | 18 | 296 | 4.8 | 17.7 | 0.00 | 0.00 | 0.00 | 39 | 1019.4 |
| 20260501191543 | 18 | 225 | 4.8 | 16.1 | 0.00 | 0.00 | 0.00 | 39 | 1019.3 |
| 20260501191038 | 18 | 342 | 4.8 | 16.1 | 0.00 | 0.00 | 0.00 | 40 | 1019.3 |
| 20260501190532 | 18 | 284 | 4.8 | 17.7 | 0.00 | 0.00 | 0.00 | 39 | 1019.3 |
| 20260501190026 | 19 | 296 | 4.8 | 17.7 | 0.00 | 0.00 | 0.00 | 43 | 1019.3 |
| 20260501185519 | 18 | 295 | 4.8 | 14.5 | 0.00 | 0.00 | 0.00 | 44 | 1019.4 |
| 20260501185013 | 17 | 296 | 4.8 | 12.9 | 0.00 | 0.00 | 0.00 | 41 | 1019.4 |
| 20260501184002 | 18 | 306 | 4.8 | 16.1 | 0.00 | 0.00 | 0.00 | 37 | 1019.3 |
| 20260501183456 | 18 | 292 | 4.8 | 16.1 | 0.00 | 0.00 | 0.00 | 44 | 1019.4 |
| 20260501182949 | 19 | 309 | 3.2 | 12.9 | 0.00 | 0.00 | 0.00 | 46 | 1019.4 |
| 20260501182443 | 19 | 271 | 3.2 | 16.1 | 0.00 | 0.00 | 0.00 | 40 | 1019.4 |
| 20260501181940 | 19 | 288 | 6.4 | 17.7 | 0.00 | 0.00 | 0.00 | 40 | 1019.5 |
| 20260501181432 | 18 | 279 | 6.4 | 17.7 | 0.00 | 0.00 | 0.00 | 39 | 1019.7 |
| 20260501180925 | 18 | 267 | 4.8 | 16.1 | 0.00 | 0.00 | 0.00 | 41 | 1019.7 |
| 20260501180420 | 18 | 273 | 4.8 | 19.3 | 0.00 | 0.00 | 0.00 | 37 | 1019.7 |
| 20260501175914 | 18 | 315 | 4.8 | 19.3 | 0.00 | 0.00 | 0.00 | 37 | 1019.8 |
| 20260501175407 | 18 | 296 | 4.8 | 16.1 | 0.00 | 0.00 | 0.00 | 39 | 1019.8 |
| 20260501174901 | 18 | 293 | 4.8 | 16.1 | 0.00 | 0.00 | 0.00 | 43 | 1019.8 |
| 20260501174355 | 18 | 292 | 4.8 | 16.1 | 0.00 | 0.00 | 0.00 | 38 | 1020.0 |
| 20260501173849 | 18 | 261 | 6.4 | 24.1 | 0.00 | 0.00 | 0.00 | 37 | 1020.0 |
| 20260501173343 | 18 | 320 | 6.4 | 24.1 | 0.00 | 0.00 | 0.00 | 39 | 1020.0 |
| 20260501172837 | 18 | 312 | 4.8 | 14.5 | 0.00 | 0.00 | 0.00 | 40 | 1019.9 |
| 20260501172331 | 18 | 307 | 3.2 | 11.3 | 0.00 | 0.00 | 0.00 | 43 | 1020.1 |